Longue Point De, Quebec

9:49 AM EST on December 07, 2016 (GMT -0500)
Longue-Pointe-de-Mingan

Weather History for CWBT - March, 2012

Change the Weather History Date:

Thursday, March 8, 2012

  Actual Average (CYGV) Record (CYGV)
Temperature  
Mean Temperature 31 °F -  
Max Temperature 37 °F 22 °F 39 °F (2005)
Min Temperature 25 °F 4 °F -20 °F (2007)
Degree Days  
Heating Degree Days 34    
Moisture  
Dew Point 31 °F    
Average Humidity 95    
Maximum Humidity 100    
Minimum Humidity 86    
Precipitation  
Precipitation 0.24 in - - ()
Sea Level Pressure  
Sea Level Pressure 29.55 in    
Wind  
Wind Speed 3 mph ()    
Max Wind Speed 5 mph    
Max Gust Speed -    
Averages and records for this station are not official NWS values.
T = Trace of Precipitation, MM = Missing Value Source: Averaged Metar Reports

Daily Weather History Graph

Daily Weather History Graph

Search for Another Location

Airport or City:

Trip Planner

Search our weather history database for the weather conditions in past years. The results will help you decide how hot, cold, wet, or windy it might be!

Date:

Astronomy

Mar. 08, 2012 Rise Set
Actual Time 5:44 AM EST 5:11 PM EST
Civil Twilight 5:12 AM EST 5:43 PM EST
Nautical Twilight 4:34 AM EST 6:21 PM EST
Astronomical Twilight 3:56 AM EST 6:59 PM EST
Moon 6:04 PM EST (3/8) 5:20 AM EST (3/8)
Length of Visible Light 12h 31m
Length of Day
11h 26m
Full, 100% of the Moon is Illuminated
Mar 8
Full
Mar 14
Last Quarter
Mar 22
New
Mar 30
First Quarter
Apr 6
Full

Hourly Weather History & Observations

Time (EST) Temp. Windchill Dew Point Humidity Pressure Visibility Wind Dir Wind Speed Gust Speed Precip Events Conditions
12:00 AM 27.0 °F - 25.3 °F 94% 29.84 in - East 2.3 mph - N/A   Unknown
1:00 AM 26 °F - 25 °F 93% 29.83 in - ENE 2.3 mph - -  
1:00 AM 25.5 °F - 24.8 °F 97% 29.83 in - ENE 2.3 mph - N/A   Unknown
2:00 AM 26.4 °F 22.4 °F 25.2 °F 95% 29.78 in - ENE 3.5 mph - N/A   Unknown
3:00 AM 27.0 °F 23.0 °F 25.9 °F 96% 29.74 in - ENE 3.5 mph - N/A   Unknown
4:00 AM 27.3 °F 22.0 °F 26.1 °F 95% 29.70 in - ENE 4.6 mph - N/A   Unknown
5:00 AM 27.9 °F 24.0 °F 26.8 °F 96% 29.67 in - ENE 3.5 mph - N/A   Unknown
6:00 AM 28.2 °F 24.4 °F 27.3 °F 96% 29.64 in - NE 3.5 mph - N/A   Unknown
7:00 AM 29 °F - 28 °F 96% 29.62 in - NE 3.5 mph - -  
7:00 AM 29.5 °F 25.9 °F 28.2 °F 95% 29.62 in - NE 3.5 mph - N/A   Unknown
8:00 AM 31.3 °F 26.6 °F 29.3 °F 92% 29.60 in - ENE 4.6 mph - N/A   Unknown
9:00 AM 31.5 °F 28.1 °F 30.2 °F 95% 29.60 in - ENE 3.5 mph - N/A   Unknown
10:00 AM 34.2 °F - 30.9 °F 88% 29.57 in - East 2.3 mph - N/A   Unknown
11:00 AM 35.4 °F - 31.6 °F 86% 29.56 in - NE 2.3 mph - N/A   Unknown
12:00 PM 35.1 °F - 33.1 °F 92% 29.54 in - ENE 2.3 mph - N/A   Unknown
1:00 PM 36 °F - 34 °F 91% 29.52 in - East 2.3 mph - -  
1:00 PM 36.5 °F - 34.3 °F 92% 29.52 in - East 2.3 mph - N/A   Unknown
2:00 PM 36.9 °F - 35.1 °F 93% 29.48 in - East 2.3 mph - N/A   Unknown
3:00 PM 35.4 °F - 34.7 °F 97% 29.48 in - ENE 1.2 mph - 0.05 in   Unknown
4:00 PM 35.1 °F 32.2 °F 34.5 °F 98% 29.46 in - NE 3.5 mph - N/A   Unknown
5:00 PM 35.1 °F 32.2 °F 34.7 °F 99% 29.44 in - East 3.5 mph - 0.05 in   Unknown
6:00 PM 35.1 °F 32.2 °F 34.9 °F 99% 29.41 in - ENE 3.5 mph - N/A   Unknown
7:00 PM 35 °F - 35 °F 99% 29.39 in - East 3.5 mph - -  
7:00 PM 35.1 °F 32.2 °F 34.9 °F 99% 29.39 in - East 3.5 mph - N/A   Unknown
8:00 PM 35.4 °F 32.6 °F 35.2 °F 99% 29.35 in - ENE 3.5 mph - 0.09 in   Unknown
9:00 PM 35.8 °F - 35.8 °F 100% 29.32 in - ENE 2.3 mph - N/A   Unknown
10:00 PM 35.8 °F - 35.8 °F 100% 29.28 in - NE 2.3 mph - N/A   Unknown
11:00 PM 36.9 °F - 36.7 °F 99% 29.24 in - SE 2.3 mph - 0.08 in   Unknown